EW3857 Weather Reports


Display with metric or nautical units.
time (UTC)temp
F
wind
direction
speed
MPH
gust
MPH
rain 1hr
in
rain 24hr
in
rain mn
in
humidity
%
barometer
mb
20260906075426 79 184 3.0 5.0 0.00 0.00 0.00 91 1015.1
20260906074920 80 187 3.0 5.0 0.00 0.00 0.00 90 1015.0
20260906074415 80 153 6.0 7.0 0.00 0.00 0.00 89 1014.9
20260906073914 80 161 6.0 7.0 0.00 0.00 0.00 89 1015.0
20260906073409 80 153 4.0 5.0 0.00 0.00 0.00 90 1015.0
20260906072905 80 179 3.0 3.0 0.00 0.00 0.00 90 1015.1
20260906072400 80 163 5.0 5.0 0.00 0.00 0.00 90 1015.1
20260906071856 79 163 5.0 6.0 0.00 0.00 0.00 90 1015.1
20260906071351 79 171 4.0 5.0 0.00 0.00 0.00 92 1015.1
20260906070847 79 182 5.0 5.0 0.00 0.00 0.00 93 1015.0
20260906070343 78 180 0.0 0.0 0.00 0.00 0.00 93 1015.3
20260906065838 78 180 0.0 0.0 0.00 0.00 0.00 93 1015.3
20260906065333 78 180 0.0 0.0 0.00 0.00 0.00 93 1015.2
20260906064828 77 180 0.0 1.0 0.00 0.00 0.00 93 1015.2
20260906064324 77 181 0.0 0.0 0.00 0.00 0.00 93 1014.9
20260906063819 77 181 1.0 1.0 0.00 0.00 0.00 94 1015.0
20260906063315 77 180 0.0 1.0 0.00 0.00 0.00 94 1015.1
20260906062810 77 180 0.0 0.0 0.00 0.00 0.00 95 1015.2
20260906062308 77 180 0.0 0.0 0.00 0.00 0.00 95 1015.1
20260906061804 77 179 1.0 1.0 0.00 0.00 0.00 95 1015.2
20260906061301 77 181 1.0 1.0 0.00 0.00 0.00 95 1015.0
20260906060755 77 180 0.0 0.0 0.00 0.00 0.00 95 1015.0
20260906060253 78 181 1.0 1.0 0.00 0.00 0.00 94 1015.1
20260906055749 78 180 0.0 0.0 0.00 0.00 0.00 94 1015.1
20260906055244 78 180 0.0 0.0 0.00 0.00 0.00 93 1015.0
20260906054739 78 180 0.0 0.0 0.00 0.00 0.00 93 1015.1
20260906054234 78 180 0.0 0.0 0.00 0.00 0.00 93 1014.9
20260906053731 78 180 0.0 0.0 0.00 0.00 0.00 93 1015.2
20260906053226 78 180 0.0 0.0 0.00 0.00 0.00 94 1015.1
20260906052721 78 181 1.0 1.0 0.00 0.00 0.00 93 1015.2
20260906052217 78 182 2.0 2.0 0.00 0.00 0.00 93 1015.0
20260906051714 78 180 0.0 0.0 0.00 0.00 0.00 93 1015.1
20260906051213 78 181 1.0 1.0 0.00 0.00 0.00 93 1015.0
20260906050709 78 181 1.0 1.0 0.00 0.00 0.00 93 1015.0
20260906050204 78 180 0.0 0.0 0.00 0.00 0.00 93 1015.2
20260906045702 78 180 1.0 1.0 0.00 0.00 0.00 93 1015.3
20260906045157 78 180 0.0 0.0 0.00 0.00 0.00 94 1015.1
20260906044653 78 181 1.0 1.0 0.00 0.00 0.00 94 1015.2
20260906044148 78 180 0.0 0.0 0.00 0.00 0.00 93 1015.2
20260906043645 78 180 0.0 0.0 0.00 0.00 0.00 93 1015.4
20260906043140 79 180 1.0 1.0 0.00 0.00 0.00 92 1015.5
20260906042639 79 180 0.0 0.0 0.00 0.00 0.00 92 1015.3
20260906042134 78 180 0.0 1.0 0.00 0.00 0.00 92 1015.3
20260906041629 78 180 0.0 0.0 0.00 0.00 0.00 92 1015.3
20260906041124 78 181 1.0 2.0 0.00 0.00 0.00 93 1015.4
20260906040620 78 179 1.0 1.0 0.00 0.00 0.00 93 1015.4
20260906040115 78 180 0.0 0.0 0.00 0.00 0.00 92 1015.4
20260906035610 78 181 1.0 1.0 0.00 0.00 0.00 92 1015.4
20260906035105 79 180 0.0 0.0 0.00 0.00 0.00 92 1015.3
20260906034600 79 180 0.0 0.0 0.00 0.00 0.00 92 1015.3
20260906034100 79 181 0.0 1.0 0.00 0.00 0.00 92 1015.3
20260906033550 79 180 1.0 1.0 0.00 0.00 0.00 92 1015.3
20260906033045 79 181 1.0 2.0 0.00 0.00 0.00 92 1015.1
20260906032541 79 181 1.0 2.0 0.00 0.00 0.00 92 1015.1
20260906032036 79 181 1.0 1.0 0.00 0.00 0.00 92 1015.1
20260906031532 79 182 1.0 1.0 0.00 0.00 0.00 92 1015.2
20260906031028 79 180 1.0 2.0 0.00 0.00 0.00 92 1015.0
20260906030526 79 180 1.0 1.0 0.00 0.00 0.00 91 1015.0
20260906030026 79 180 0.0 0.0 0.00 0.00 0.00 91 1015.2
20260906025526 80 180 0.0 1.0 0.00 0.00 0.00 90 1015.1
20260906025024 80 181 1.0 1.0 0.00 0.00 0.00 90 1015.2
20260906024519 80 179 0.0 0.0 0.00 0.00 0.00 90 1014.9
20260906024014 80 181 2.0 2.0 0.00 0.00 0.00 89 1014.9
20260906023510 80 252 1.0 1.0 0.00 0.00 0.00 88 1014.9
20260906023005 80 251 1.0 1.0 0.00 0.00 0.00 88 1014.8
20260906022500 81 251 1.0 1.0 0.00 0.00 0.00 87 1014.9
20260906021955 81 270 1.0 2.0 0.00 0.00 0.00 86 1014.8
20260906021450 82 268 1.0 1.0 0.00 0.00 0.00 85 1014.9
20260906020944 83 274 0.0 1.0 0.00 0.00 0.00 84 1014.9
20260906020439 84 281 1.0 1.0 0.00 0.00 0.00 84 1014.7
20260906015939 84 20 2.0 3.0 0.00 0.00 0.00 85 1014.9
20260906015438 83 28 4.0 5.0 0.00 0.00 0.00 85 1015.1
20260906014932 83 1 1.0 1.0 0.00 0.00 0.00 85 1014.8
20260906014432 84 16 1.0 1.0 0.00 0.00 0.00 84 1014.7
20260906013923 84 50 3.0 3.0 0.00 0.00 0.00 84 1014.8
20260906013418 83 349 1.0 1.0 0.00 0.00 0.00 83 1014.5
20260906012914 82 336 1.0 2.0 0.00 0.00 0.00 83 1014.6
20260906012408 82 272 0.0 0.0 0.00 0.00 0.00 83 1014.7
20260906011907 82 273 0.0 0.0 0.00 0.00 0.00 83 1014.4
20260906011403 83 314 1.0 1.0 0.00 0.00 0.00 82 1014.1
20260906010858 83 325 2.0 2.0 0.00 0.00 0.00 83 1013.7
20260906010354 84 289 1.0 1.0 0.00 0.00 0.00 82 1013.6
20260906005850 84 331 2.0 2.0 0.00 0.00 0.00 80 1013.4
20260906005349 85 12 2.0 2.0 0.00 0.00 0.00 81 1013.4
20260906004847 85 67 1.0 2.0 0.00 0.00 0.00 82 1013.4
20260906004347 84 40 1.0 2.0 0.00 0.00 0.00 78 1013.4
20260906003843 84 349 3.0 3.0 0.00 0.00 0.00 77 1013.4
20260906003338 85 12 3.0 3.0 0.00 0.00 0.00 78 1013.6
20260906002833 85 353 5.0 5.0 0.00 0.00 0.00 76 1013.6
20260906002333 86 358 4.0 5.0 0.00 0.00 0.00 75 1013.7
20260906001829 86 345 4.0 5.0 0.00 0.00 0.00 73 1013.8
20260906001324 86 289 0.0 1.0 0.00 0.00 0.00 72 1013.7
20260906000819 86 20 2.0 3.0 0.00 0.00 0.00 70 1013.8
20260906000314 86 0 3.0 5.0 0.00 0.00 0.00 80 1013.5
20260905235809 86 68 4.0 6.0 0.00 0.00 0.00 80 1013.6
20260905235308 85 317 1.0 2.0 0.00 0.00 0.00 75 1013.3
20260905234804 86 262 0.0 0.0 0.00 0.00 0.00 79 1013.3
20260905234259 86 267 0.0 0.0 0.00 0.00 0.00 77 1013.7
20260905233754 87 272 0.0 1.0 0.00 0.00 0.00 74 1013.5
20260905233254 88 272 1.0 2.0 0.00 0.00 0.00 71 1013.6
20260905232753 88 273 1.0 1.0 0.00 0.00 0.00 70 1013.6
20260905232249 89 288 0.0 1.0 0.00 0.00 0.00 68 1013.6
20260905231744 90 350 5.0 6.0 0.00 0.00 0.00 57 1013.4
20260905231239 90 5 4.0 5.0 0.00 0.00 0.00 58 1013.5
20260905230736 90 13 4.0 5.0 0.00 0.00 0.00 58 1013.5
20260905230233 90 2 3.0 3.0 0.00 0.00 0.00 67 1013.2
20260905225728 89 0 3.0 3.0 0.00 0.00 0.00 68 1013.4
20260905225224 90 325 1.0 1.0 0.00 0.00 0.00 68 1013.1
20260905224722 91 22 3.0 5.0 0.00 0.00 0.00 63 1013.1
20260905224218 91 18 4.0 5.0 0.00 0.00 0.00 65 1013.3
20260905223714 91 72 3.0 5.0 0.00 0.00 0.00 66 1013.2
20260905223211 91 338 3.0 3.0 0.00 0.00 0.00 62 1013.1
20260905222706 91 342 5.0 6.0 0.00 0.00 0.00 63 1013.3
20260905222205 92 16 9.0 10.0 0.00 0.00 0.00 62 1013.3
20260905221701 95 39 9.0 13.0 0.00 0.00 0.00 57 1013.4
20260905221157 95 285 2.0 2.0 0.00 0.00 0.00 56 1013.3
20260905220653 95 285 2.0 2.0 0.00 0.00 0.00 56 1013.4
20260905220149 95 273 0.0 0.0 0.00 0.00 0.00 59 1013.6
20260905215643 95 264 0.0 0.0 0.00 0.00 0.00 60 1013.3
20260905215138 95 266 0.0 0.0 0.00 0.00 0.00 60 1013.4
20260905214634 95 269 0.0 0.0 0.00 0.00 0.00 57 1013.5
20260905214129 96 270 1.0 2.0 0.00 0.00 0.00 57 1013.3
20260905213625 96 267 0.0 0.0 0.00 0.00 0.00 55 1013.4
20260905213120 96 270 0.0 0.0 0.00 0.00 0.00 58 1013.4
20260905212615 96 256 2.0 2.0 0.00 0.00 0.00 57 1013.5
20260905212114 95 272 0.0 0.0 0.00 0.00 0.00 56 1013.7
20260905211610 95 287 1.0 1.0 0.00 0.00 0.00 56 1013.5
20260905211105 97 271 0.0 0.0 0.00 0.00 0.00 55 1013.5
20260905210602 97 266 0.0 0.0 0.00 0.00 0.00 57 1013.3
20260905210056 95 264 0.0 0.0 0.00 0.00 0.00 60 1013.2
20260905205555 96 252 3.0 3.0 0.00 0.00 0.00 59 1013.3
20260905205055 96 256 2.0 2.0 0.00 0.00 0.00 57 1013.5
20260905204549 96 257 2.0 2.0 0.00 0.00 0.00 55 1013.4
20260905204045 96 257 3.0 3.0 0.00 0.00 0.00 55 1013.4
20260905203544 95 253 4.0 5.0 0.00 0.00 0.00 57 1013.5
20260905203040 95 256 1.0 1.0 0.00 0.00 0.00 56 1013.7
20260905202535 96 249 4.0 5.0 0.00 0.00 0.00 58 1013.6
20260905202031 95 258 1.0 2.0 0.00 0.00 0.00 59 1013.7
20260905201526 95 252 4.0 5.0 0.00 0.00 0.00 59 1013.8
20260905201025 95 255 3.0 3.0 0.00 0.00 0.00 59 1014.1
20260905200521 95 252 3.0 3.0 0.00 0.00 0.00 60 1014.2
20260905200020 95 255 3.0 3.0 0.00 0.00 0.00 59 1014.2
20260905195515 96 255 3.0 3.0 0.00 0.00 0.00 58 1014.3
20260905195010 96 255 2.0 2.0 0.00 0.00 0.00 59 1014.6
20260905194509 96 277 1.0 1.0 0.00 0.00 0.00 59 1014.6
20260905194003 95 257 1.0 1.0 0.00 0.00 0.00 59 1014.3
20260905193458 95 264 1.0 1.0 0.00 0.00 0.00 60 1014.4
20260905192954 95 257 1.0 1.0 0.00 0.00 0.00 60 1014.6
20260905192449 95 255 2.0 2.0 0.00 0.00 0.00 58 1014.5
20260905191945 94 251 3.0 3.0 0.00 0.00 0.00 62 1014.6
20260905191443 94 261 1.0 1.0 0.00 0.00 0.00 59 1014.6
20260905190937 94 256 2.0 2.0 0.00 0.00 0.00 62 1014.7
20260905190435 94 249 3.0 3.0 0.00 0.00 0.00 62 1015.0
20260905185934 94 256 2.0 2.0 0.00 0.00 0.00 61 1015.0
20260905185429 94 251 3.0 3.0 0.00 0.00 0.00 63 1015.0
20260905184928 93 255 3.0 3.0 0.00 0.00 0.00 61 1015.2
20260905184423 93 251 4.0 5.0 0.00 0.00 0.00 62 1015.2
20260905183922 94 253 4.0 5.0 0.00 0.00 0.00 65 1015.1
20260905183416 93 253 3.0 5.0 0.00 0.00 0.00 63 1015.4
20260905182912 93 255 3.0 3.0 0.00 0.00 0.00 65 1015.5
20260905182410 93 249 5.0 5.0 0.00 0.00 0.00 65 1015.4
20260905181907 94 250 4.0 5.0 0.00 0.00 0.00 64 1015.3
20260905181407 93 254 3.0 3.0 0.00 0.00 0.00 66 1015.6
20260905180905 93 252 4.0 5.0 0.00 0.00 0.00 66 1015.8
20260905180401 93 251 4.0 5.0 0.00 0.00 0.00 66 1015.8
20260905175855 93 256 3.0 3.0 0.00 0.00 0.00 63 1015.8
20260905175354 93 256 2.0 2.0 0.00 0.00 0.00 66 1016.0
20260905174850 93 252 3.0 3.0 0.00 0.00 0.00 68 1016.0
20260905174346 93 260 1.0 1.0 0.00 0.00 0.00 69 1015.9
20260905173842 93 262 1.0 2.0 0.00 0.00 0.00 67 1016.1
20260905173337 93 269 1.0 1.0 0.00 0.00 0.00 66 1016.1
20260905172832 93 264 1.0 1.0 0.00 0.00 0.00 66 1016.1
20260905172330 92 270 0.0 0.0 0.00 0.00 0.00 72 1016.2
20260905171827 92 262 1.0 1.0 0.00 0.00 0.00 70 1016.3
20260905171323 92 262 2.0 3.0 0.00 0.00 0.00 72 1016.2
20260905170819 91 258 2.0 2.0 0.00 0.00 0.00 72 1016.4
20260905170315 91 262 2.0 2.0 0.00 0.00 0.00 73 1016.2
20260905165814 91 255 3.0 3.0 0.00 0.00 0.00 76 1016.3
20260905165309 91 263 2.0 2.0 0.00 0.00 0.00 76 1016.4
20260905164804 91 261 1.0 2.0 0.00 0.00 0.00 77 1016.4
20260905164304 90 257 2.0 2.0 0.00 0.00 0.00 79 1016.4
20260905163754 90 255 1.0 2.0 0.00 0.00 0.00 78 1016.8
20260905163250 89 265 1.0 1.0 0.00 0.00 0.00 79 1016.7
20260905162746 89 264 1.0 1.0 0.00 0.00 0.00 81 1016.7
20260905162245 89 268 1.0 1.0 0.00 0.00 0.00 80 1016.6
20260905161740 89 263 1.0 2.0 0.00 0.00 0.00 82 1016.8
20260905161238 89 344 0.0 0.0 0.00 0.00 0.00 81 1016.8
20260905160732 89 268 1.0 1.0 0.00 0.00 0.00 81 1016.8
20260905160231 89 265 1.0 1.0 0.00 0.00 0.00 81 1017.1
20260905155726 89 260 2.0 2.0 0.00 0.00 0.00 81 1017.0
20260905155225 89 256 2.0 2.0 0.00 0.00 0.00 81 1017.1
20260905154719 88 265 1.0 1.0 0.00 0.00 0.00 82 1017.1
20260905154215 87 268 1.0 1.0 0.00 0.00 0.00 84 1017.1
20260905153711 87 262 2.0 2.0 0.00 0.00 0.00 83 1017.2
20260905153206 86 264 1.0 1.0 0.00 0.00 0.00 84 1017.1
20260905152701 85 257 2.0 2.0 0.00 0.00 0.00 87 1017.3
20260905152155 85 266 1.0 1.0 0.00 0.00 0.00 88 1017.3
20260905151650 85 266 0.0 1.0 0.00 0.00 0.00 89 1017.2
20260905151146 84 252 1.0 1.0 0.00 0.00 0.00 89 1017.2
20260905150641 84 269 1.0 1.0 0.00 0.00 0.00 90 1017.1
20260905150139 84 271 0.0 1.0 0.00 0.00 0.00 90 1017.2
20260905145637 84 277 0.0 1.0 0.00 0.00 0.00 90 1017.1
20260905145137 84 270 0.0 0.0 0.00 0.00 0.00 90 1017.2
20260905144626 84 259 1.0 1.0 0.00 0.00 0.00 91 1017.3
20260905144125 83 267 0.0 1.0 0.00 0.00 0.00 91 1017.3
20260905143620 83 261 2.0 2.0 0.00 0.00 0.00 92 1017.0
20260905143115 83 259 1.0 2.0 0.00 0.00 0.00 90 1017.2
20260905142614 83 264 1.0 1.0 0.00 0.00 0.00 90 1017.2
20260905142113 83 266 0.0 0.0 0.00 0.00 0.00 90 1017.5
20260905141613 83 268 1.0 1.0 0.00 0.00 0.00 89 1017.2
20260905141110 83 271 0.0 1.0 0.00 0.00 0.00 89 1017.6
20260905140604 82 266 1.0 1.0 0.00 0.00 0.00 89 1017.3
20260905140103 82 266 1.0 1.0 0.00 0.00 0.00 90 1017.3
20260905135559 82 256 2.0 3.0 0.00 0.00 0.00 89 1017.3
20260905135054 82 261 1.0 2.0 0.00 0.00 0.00 89 1017.4
20260905134549 82 262 1.0 1.0 0.00 0.00 0.00 90 1017.5
20260905134047 81 264 1.0 1.0 0.00 0.00 0.00 91 1017.8
20260905133543 81 278 0.0 1.0 0.00 0.00 0.00 92 1017.7
20260905133042 81 266 1.0 1.0 0.00 0.00 0.00 94 1017.7
20260905132543 81 261 2.0 2.0 0.00 0.00 0.00 94 1017.9
20260905132037 81 264 1.0 1.0 0.00 0.00 0.00 94 1017.7
20260905131533 80 266 1.0 1.0 0.00 0.00 0.00 94 1017.7
20260905131028 80 266 0.0 0.0 0.00 0.00 0.00 95 1018.0
20260905130527 80 262 2.0 2.0 0.00 0.00 0.00 95 1017.8
20260905130023 80 278 0.0 1.0 0.00 0.00 0.00 96 1017.7
20260905125522 80 264 2.0 2.0 0.00 0.00 0.00 97 1017.5
20260905125018 79 270 0.0 0.0 0.00 0.00 0.00 98 1017.6
20260905124514 79 270 0.0 0.0 0.00 0.00 0.00 98 1017.7
20260905124010 78 270 0.0 0.0 0.00 0.00 0.00 99 1017.8
20260905123505 78 270 0.0 0.0 0.00 0.00 0.00 99 1017.8
20260905123001 77 270 0.0 0.0 0.00 0.00 0.00 99 1017.8
20260905122501 77 270 0.0 0.0 0.00 0.00 0.00 99 1017.6
20260905121955 76 270 0.0 1.0 0.00 0.00 0.00 99 1017.8
20260905121451 76 270 0.0 0.0 0.00 0.00 0.00 99 1017.7
20260905120950 76 270 0.0 0.0 0.00 0.00 0.00 99 1017.4
20260905120445 76 270 0.0 0.0 0.00 0.00 0.00 99 1017.6
20260905115940 76 270 0.0 0.0 0.00 0.00 0.00 99 1017.6
20260905115439 76 269 0.0 0.0 0.00 0.00 0.00 99 1017.4
20260905114934 76 269 0.0 0.0 0.00 0.00 0.00 99 1017.4
20260905114428 75 269 0.0 0.0 0.00 0.00 0.00 99 1017.2
20260905113928 75 268 0.0 0.0 0.00 0.00 0.00 99 1017.4
20260905113423 75 269 0.0 0.0 0.00 0.00 0.00 99 1017.3
20260905112918 75 269 0.0 0.0 0.00 0.00 0.00 99 1017.0
20260905112414 75 269 0.0 0.0 0.00 0.00 0.00 99 1017.1
20260905111908 75 270 0.0 0.0 0.00 0.00 0.00 99 1017.2
20260905111408 75 269 0.0 0.0 0.00 0.00 0.00 99 1017.1
20260905110902 75 269 0.0 0.0 0.00 0.00 0.00 99 1016.7
20260905110356 75 269 0.0 0.0 0.00 0.00 0.00 99 1016.9
20260905105852 75 271 0.0 0.0 0.00 0.00 0.00 99 1016.8
20260905105350 75 269 0.0 0.0 0.00 0.00 0.00 99 1016.7
20260905104845 76 269 1.0 1.0 0.00 0.00 0.00 99 1016.7
20260905104342 75 270 0.0 0.0 0.00 0.00 0.00 99 1016.5
20260905103841 75 270 0.0 0.0 0.00 0.00 0.00 99 1016.6
20260905103337 75 269 1.0 1.0 0.00 0.00 0.00 99 1016.4
20260905102832 76 271 0.0 0.0 0.00 0.00 0.00 99 1016.3
20260905102329 76 271 0.0 0.0 0.00 0.00 0.00 99 1016.2
20260905101829 76 271 0.0 0.0 0.00 0.00 0.00 99 1016.4
20260905101327 75 270 1.0 1.0 0.00 0.00 0.00 99 1016.3
20260905100821 75 271 0.0 0.0 0.00 0.00 0.00 99 1016.0
20260905100317 75 271 0.0 0.0 0.00 0.00 0.00 99 1016.3
20260905095816 75 271 0.0 0.0 0.00 0.00 0.00 99 1016.3
20260905095311 75 271 0.0 0.0 0.00 0.00 0.00 99 1016.2
20260905094805 75 271 0.0 0.0 0.00 0.00 0.00 99 1016.3
20260905094301 75 271 0.0 0.0 0.00 0.00 0.00 99 1016.4
20260905093754 75 271 0.0 0.0 0.00 0.00 0.00 99 1016.5
20260905093250 75 271 0.0 0.0 0.00 0.00 0.00 99 1016.5
20260905092745 75 271 0.0 0.0 0.00 0.00 0.00 99 1016.2
20260905092240 75 271 0.0 0.0 0.00 0.00 0.00 99 1016.2
20260905091735 75 271 0.0 0.0 0.00 0.00 0.00 99 1016.2
20260905091230 76 271 0.0 0.0 0.00 0.00 0.00 99 1016.1
20260905090729 76 271 1.0 1.0 0.00 0.00 0.00 99 1016.1
20260905090225 76 271 0.0 0.0 0.00 0.00 0.00 99 1016.2
20260905085724 76 271 1.0 1.0 0.00 0.00 0.00 99 1016.1
20260905085218 76 271 1.0 1.0 0.00 0.00 0.00 99 1016.0
20260905084713 76 271 0.0 1.0 0.00 0.00 0.00 99 1015.8
20260905084212 76 271 0.0 0.0 0.00 0.00 0.00 99 1015.9
20260905083708 76 271 0.0 0.0 0.00 0.00 0.00 99 1016.0
20260905083204 76 271 0.0 0.0 0.00 0.00 0.00 99 1016.2
20260905082659 76 271 0.0 0.0 0.00 0.00 0.00 99 1015.9
20260905082154 76 271 0.0 0.0 0.00 0.00 0.00 98 1016.1
20260905081649 76 271 0.0 0.0 0.00 0.00 0.00 98 1015.7
20260905081144 76 271 0.0 1.0 0.00 0.00 0.00 98 1016.2
20260905080643 76 271 0.0 0.0 0.00 0.00 0.00 98 1016.0
20260905080143 76 271 0.0 0.0 0.00 0.00 0.00 98 1015.9
20260905075642 76 271 0.0 0.0 0.00 0.00 0.00 98 1015.9